Theta_e
354 355 354 354 354 354 351 349 350 351 351 350 347 345 346 349 351 352 352 353 354 354 352 350 350 351 352 352 352 352 352 351 351 352 352 353 353 353 352 353 353 352 351 350 349 348 347 347 346 347 346 346 346 346 346 347 346 346 347 347 348 349 349 349 349 348 345 345 345 343 343 343 342 342 342 342 341 343 344 345 345 346 346 346 345
353 354 354 353 352 352 350 349 349 349 350 350 348 347 346 347 348 350 352 353 354 354 352 350 349 350 351 351 351 351 352 352 351 352 352 353 353 353 353 354 354 353 352 352 351 348 347 346 347 348 348 348 348 347 346 346 346 346 347 347 349 349 349 349 348 347 345 343 343 343 343 343 342 343 342 341 342 342 343 344 344 345 344 344 342
351 352 351 351 350 351 349 348 348 349 349 349 348 348 349 350 351 352 353 353 353 352 351 350 349 349 349 349 349 350 351 351 352 352 352 352 353 353 353 353 353 353 353 352 350 348 347 348 348 349 349 349 348 347 346 346 346 346 348 349 349 349 348 347 346 345 344 342 342 343 343 343 343 343 342 342 342 342 341 342 342 342 342 342 341
351 351 350 349 351 350 349 347 347 348 348 348 348 348 352 353 354 354 354 352 351 351 350 350 349 349 349 349 349 349 351 352 351 352 353 353 353 353 353 353 353 354 353 351 348 347 348 348 348 348 348 348 347 346 346 347 347 348 348 347 347 346 345 345 345 344 344 343 343 343 343 343 343 343 343 343 342 342 342 342 342 342 342 342 342
350 350 350 350 351 351 349 348 348 347 348 349 350 351 353 354 354 354 353 351 351 353 351 349 349 349 349 349 349 349 351 351 350 352 352 353 353 353 352 353 353 353 353 350 348 348 348 348 348 348 348 347 347 347 347 347 347 347 346 345 345 344 344 344 345 344 344 344 344 343 344 344 343 343 344 343 343 343 343 343 343 343 342 342 342
351 351 350 350 351 352 351 350 349 349 348 350 352 354 355 355 353 352 351 350 350 350 349 348 349 349 349 349 349 349 349 350 350 352 351 351 352 351 352 353 353 351 351 349 349 349 349 348 348 348 348 347 347 347 347 346 346 345 345 345 344 344 344 344 344 344 344 344 344 344 344 344 343 343 343 343 343 343 342 342 342 342 342 342 341
351 351 350 351 352 353 352 352 352 351 351 351 353 355 356 356 354 352 350 350 349 349 348 349 349 350 350 349 349 349 349 350 351 351 351 351 351 351 352 352 351 350 350 349 349 348 348 348 348 348 348 347 346 346 345 345 345 345 344 344 344 344 344 344 344 344 344 344 344 344 344 344 343 343 343 343 342 342 342 341 340 341 340 340 340
351 351 351 350 351 352 353 353 354 354 353 354 354 356 357 356 355 354 352 350 348 348 348 348 349 351 351 350 350 351 351 352 351 350 350 350 350 350 350 349 349 349 349 349 348 348 347 347 347 347 346 345 345 345 345 345 345 345 345 344 343 343 344 343 343 343 343 343 343 343 343 343 343 343 343 342 341 341 340 340 340 339 337 337 337
351 352 350 351 351 351 353 354 355 355 356 355 355 355 355 355 355 354 354 353 350 348 347 347 349 350 352 352 352 352 353 352 351 349 349 348 348 348 349 349 350 350 348 347 346 346 346 345 345 345 345 345 345 345 345 344 345 345 344 342 340 340 341 341 341 341 341 342 342 341 342 342 341 340 339 339 338 338 339 340 339 336 332 330 330
351 351 350 351 351 350 353 355 357 358 357 356 355 354 354 353 353 353 355 355 353 349 349 348 349 350 351 351 352 353 352 352 350 350 349 349 348 348 349 350 349 348 346 345 345 345 345 344 345 346 347 346 346 345 344 343 342 342 340 338 334 333 335 339 341 341 341 341 341 341 341 339 336 334 333 333 333 333 336 337 335 331 327 325 326
351 352 351 350 349 351 355 357 358 359 357 354 351 352 353 353 353 354 355 355 353 351 349 349 349 349 350 350 353 354 351 350 350 349 350 350 349 349 349 349 348 346 346 346 346 345 345 344 344 345 346 346 345 344 341 339 337 335 334 333 331 332 335 339 341 341 340 341 340 340 338 335 333 332 331 331 329 329 332 334 332 327 325 326 328
353 354 353 351 351 354 356 356 356 355 354 350 348 349 352 353 354 356 357 356 353 351 349 349 350 351 351 352 353 352 349 349 350 351 350 349 348 349 349 347 347 346 346 346 344 343 344 343 343 344 344 343 342 339 336 333 331 329 329 330 329 332 337 339 340 340 340 340 339 338 337 336 334 334 333 331 329 327 328 330 330 327 327 330 333
353 354 354 354 355 357 356 353 351 349 346 347 348 350 351 351 353 355 356 354 353 352 351 350 350 351 352 352 350 348 349 350 350 349 348 348 348 349 348 346 345 345 345 345 344 344 344 342 340 339 338 337 334 331 330 328 328 327 327 327 328 332 338 340 340 341 340 339 339 338 337 336 335 334 333 332 328 327 326 327 329 329 330 334 335
350 351 354 355 355 355 352 349 346 343 343 346 348 349 349 349 351 354 354 353 352 352 351 349 349 351 352 351 349 348 350 350 349 348 347 347 348 348 346 345 345 344 344 343 342 342 341 339 337 336 335 334 331 329 328 327 327 327 327 327 330 334 337 339 340 341 340 339 338 338 336 335 334 335 335 332 330 329 329 328 330 331 332 334 335
350 351 353 354 351 348 348 347 345 344 344 346 346 347 347 348 350 351 352 352 352 351 349 348 349 351 351 350 349 350 350 349 348 346 345 345 346 346 345 344 344 343 341 339 338 338 338 338 338 337 336 335 331 328 328 328 328 328 327 328 333 336 337 339 341 341 339 338 337 336 335 334 335 336 337 335 334 334 333 332 331 332 333 334 335
353 352 353 352 349 346 346 348 348 345 345 346 347 347 347 348 348 349 349 350 350 349 349 349 350 350 351 351 350 350 349 347 346 344 343 343 344 345 344 343 342 341 340 339 339 339 339 339 338 337 336 335 331 329 329 329 329 329 329 330 333 336 338 340 340 339 338 336 336 335 334 335 335 336 337 337 337 337 336 335 334 334 335 335 335
354 353 354 353 349 346 347 349 350 349 348 349 349 348 348 346 345 346 347 347 348 348 349 351 351 352 352 351 349 349 347 344 343 343 343 343 344 344 343 342 342 341 340 340 340 340 340 340 339 338 336 334 331 330 330 329 330 330 330 330 331 334 335 336 336 335 335 335 335 335 335 336 336 337 337 337 337 338 337 337 336 336 336 336 336
355 355 355 352 348 347 347 349 350 349 349 349 349 348 347 345 344 345 347 348 349 350 351 351 351 352 351 349 349 348 345 343 343 343 343 343 344 343 342 342 342 342 342 341 341 340 340 340 340 338 335 332 331 331 330 330 330 331 331 331 332 332 333 334 333 333 334 334 335 336 336 337 337 337 337 337 337 337 337 336 336 336 335 335 335
356 356 355 352 351 349 347 346 347 347 349 350 350 349 347 345 345 347 348 350 352 352 352 352 351 351 349 349 349 348 345 343 343 343 344 344 344 343 342 342 342 343 342 341 340 340 340 340 339 337 333 332 331 332 332 331 331 332 332 333 332 333 334 335 335 335 335 336 336 336 336 336 336 336 336 335 335 335 334 334 334 334 334 334 334
355 354 353 353 351 349 346 346 346 346 348 348 349 350 349 347 347 347 349 352 354 354 353 352 351 349 349 349 349 346 344 343 343 344 345 344 344 343 342 342 343 342 341 341 340 341 340 339 337 334 333 332 333 333 333 332 332 332 332 332 332 333 334 334 334 335 335 335 335 335 335 335 334 334 334 333 333 333 332 332 332 332 332 332 332
354 351 350 350 350 349 348 347 348 348 348 346 347 349 349 349 349 349 351 353 353 353 352 351 350 349 348 348 346 344 343 343 343 343 344 343 343 343 343 343 342 340 340 340 340 341 340 337 334 333 333 333 333 333 333 333 332 332 332 331 331 330 330 330 330 330 332 333 332 332 333 333 332 332 331 330 330 331 330 330 330 330 329 329 328
355 352 351 350 351 351 349 347 348 348 345 344 344 346 348 350 351 351 352 353 352 351 350 349 349 349 347 345 343 342 341 340 339 340 342 343 344 344 343 343 341 340 340 339 340 340 338 335 334 333 334 334 333 333 333 332 332 331 330 330 329 329 328 326 323 321 323 327 329 329 329 329 328 328 327 326 327 328 328 328 328 328 327 326 326
353 354 353 352 351 350 348 348 349 347 341 340 342 346 348 350 351 352 352 352 350 349 349 349 349 348 346 343 341 339 338 338 339 341 343 343 341 339 338 337 337 338 338 338 339 337 335 334 335 335 334 333 333 332 331 330 329 328 328 327 326 326 325 322 318 313 312 317 323 324 324 322 321 321 321 321 322 324 325 326 326 326 326 325 324
354 353 353 352 352 351 351 352 351 346 342 342 346 349 350 351 350 351 351 350 349 348 348 348 348 347 343 340 338 337 338 338 339 340 340 339 337 337 336 334 334 335 335 336 336 335 334 336 336 335 333 332 331 330 329 329 327 326 326 325 324 323 321 319 316 310 306 309 314 315 315 314 313 314 316 317 318 320 321 322 323 323 323 323 323
353 353 352 352 352 352 352 351 348 344 342 346 350 351 351 350 350 350 349 349 348 347 348 348 347 344 341 338 337 337 338 338 338 338 338 338 338 338 337 335 334 335 335 335 335 336 336 336 335 333 332 330 330 329 328 327 326 325 324 323 322 321 319 316 313 309 306 308 310 310 310 310 310 311 313 313 314 315 317 319 319 320 321 320 321
351 352 352 352 351 349 347 347 345 341 341 346 351 352 351 350 349 349 349 348 346 347 348 347 345 341 339 338 338 338 338 338 339 339 340 339 339 338 337 336 336 336 335 336 336 337 336 334 332 331 330 329 328 328 327 325 324 323 322 321 319 317 314 312 309 307 308 309 310 310 311 310 309 310 311 311 312 313 314 314 315 316 317 318 319
350 350 351 351 348 344 344 345 344 341 343 349 351 352 352 351 350 349 348 347 346 347 348 346 343 340 339 338 338 338 339 340 341 341 341 339 338 338 337 336 336 335 333 333 334 335 334 332 330 329 328 327 327 325 324 323 323 321 319 317 315 312 311 309 309 308 309 310 310 310 310 309 308 309 310 311 311 312 312 313 313 314 315 315 316
350 349 350 350 349 347 347 347 344 342 347 351 352 352 351 350 350 349 347 346 346 347 347 345 342 340 339 339 339 340 340 341 341 340 339 338 337 336 335 334 333 331 329 329 332 333 331 330 330 329 327 326 324 323 323 322 320 317 315 313 311 311 310 309 309 309 310 310 309 308 308 308 307 309 310 311 310 310 310 311 311 311 311 312 312
350 349 349 351 352 352 351 348 344 342 346 350 352 352 351 350 349 348 347 347 347 346 346 345 342 340 341 341 341 342 342 341 340 339 337 336 334 333 331 330 329 327 327 329 332 331 330 330 331 329 326 324 323 321 320 317 315 313 312 311 311 311 311 309 309 309 309 309 308 308 308 308 308 309 310 310 310 310 309 309 309 309 309 309 310
350 349 349 350 352 353 352 351 347 345 346 349 350 350 350 350 349 348 347 347 347 346 345 344 343 342 342 343 343 342 340 339 337 336 334 333 330 329 327 327 326 326 328 331 331 330 330 330 328 325 323 322 320 317 314 313 313 312 312 312 311 311 310 309 309 309 309 308 308 308 308 308 309 309 309 309 309 309 309 309 309 309 309 309 309
349 348 349 350 351 351 350 350 349 347 347 348 348 348 348 349 349 347 347 347 347 346 345 345 344 344 344 343 342 340 338 336 335 333 332 330 327 323 321 323 325 328 329 331 330 329 329 327 325 323 321 319 316 313 312 313 313 312 312 312 311 311 310 309 309 309 309 309 308 308 308 308 308 308 308 308 308 308 308 308 307 307 308 308 308
349 347 348 350 351 350 349 349 348 348 349 349 347 346 346 346 347 347 347 347 346 346 345 345 345 344 342 340 339 338 336 334 332 331 330 325 319 316 317 322 327 329 330 330 329 328 327 325 322 319 316 314 313 313 313 314 312 312 312 312 311 311 310 309 309 310 309 309 308 308 308 308 308 308 308 307 306 306 306 305 305 305 305 305 305
349 346 347 350 351 349 348 348 347 348 349 347 346 345 344 344 345 346 347 347 346 346 345 344 343 342 339 338 337 336 334 332 331 329 324 317 315 317 321 326 329 330 330 329 327 325 322 318 315 314 313 314 314 314 313 313 312 312 312 312 311 311 310 310 310 310 309 309 308 308 308 308 308 308 307 306 305 305 305 304 305 305 305 305 305
347 345 346 349 349 348 348 348 347 348 347 345 345 345 344 344 345 345 346 347 346 345 345 343 342 340 338 336 335 334 333 331 327 321 316 315 320 324 326 328 328 327 325 324 322 319 316 314 313 313 314 314 314 313 313 313 312 311 311 311 311 311 310 310 310 310 309 309 309 309 309 309 309 308 307 305 305 305 306 306 306 305 305 305 306
345 345 347 347 346 346 347 347 347 347 346 345 345 344 344 345 345 345 346 345 344 344 343 342 339 337 336 334 333 331 328 324 318 314 315 321 325 325 325 324 323 319 317 316 315 314 314 314 314 314 314 313 313 312 312 312 311 311 311 311 311 311 310 310 310 310 310 310 309 309 309 309 309 308 306 305 306 306 306 306 306 306 306 306 306
344 345 347 347 345 345 346 347 347 347 346 345 345 345 345 346 346 345 345 344 343 342 341 338 336 333 331 330 327 323 320 317 314 315 317 319 320 319 318 315 314 313 313 314 314 314 314 314 313 313 313 313 312 312 312 311 311 311 311 311 311 311 310 310 310 310 310 309 309 309 309 308 307 307 306 307 307 307 307 307 307 306 306 306 306
344 345 347 347 347 346 346 347 347 347 346 346 345 345 345 346 345 345 345 343 341 339 337 335 333 329 325 321 319 318 317 317 318 317 317 316 315 314 313 313 313 314 315 315 315 314 313 313 313 313 313 312 312 312 312 311 311 311 311 311 311 310 310 310 310 309 309 308 308 308 308 307 307 307 308 308 308 308 307 307 307 307 307 307 307
344 345 346 346 346 346 346 347 346 346 346 346 346 346 346 345 345 344 343 341 338 336 335 332 329 324 319 317 317 318 318 319 319 317 316 316 316 316 315 315 315 315 315 315 314 313 313 313 313 313 313 313 312 312 312 312 312 311 311 310 310 309 309 309 309 308 308 308 308 308 308 308 308 309 309 309 309 308 308 308 308 308 307 307 307
345 345 345 345 345 345 345 345 345 345 345 345 346 345 345 344 343 342 340 338 336 335 332 328 323 317 315 315 317 318 318 318 318 318 317 318 318 317 316 316 316 315 315 314 313 313 313 313 313 313 313 313 312 312 312 312 311 310 309 309 309 309 309 309 309 309 309 309 309 309 309 309 309 309 309 309 309 308 308 308 308 308 308 308 308
345 345 345 344 344 344 344 344 344 344 344 344 343 343 343 342 341 339 338 336 335 333 330 324 318 314 314 315 317 317 318 318 319 319 318 318 318 317 316 316 315 315 314 313 313 313 313 313 313 312 312 312 312 311 310 310 309 309 309 309 309 309 310 310 310 310 310 310 310 310 310 310 310 310 309 309 309 309 309 309 309 309 308 308 308
345 345 345 344 343 342 343 343 343 344 343 343 341 340 340 340 339 337 336 335 333 329 325 322 318 317 317 319 319 318 317 317 317 318 318 318 317 317 316 315 314 314 313 313 313 312 312 312 312 312 311 311 311 310 310 309 310 310 310 310 310 310 310 311 311 311 311 310 310 310 310 310 310 310 310 310 309 309 309 309 309 309 309 308 308
345 345 345 343 342 342 342 342 343 343 342 341 339 338 338 338 337 336 334 332 328 324 321 320 320 320 320 320 319 319 318 317 316 316 317 316 316 315 315 314 313 313 313 312 312 312 312 312 312 311 311 311 311 310 310 310 310 310 310 311 311 311 311 311 311 311 311 311 310 310 310 310 310 310 310 309 309 309 309 309 309 309 308 308 308
344 345 345 344 342 341 342 342 342 341 340 339 338 338 336 334 334 333 331 328 324 321 321 322 321 321 320 320 319 319 318 316 316 316 316 315 315 315 314 313 313 313 312 312 312 312 312 312 311 311 311 311 311 310 311 311 311 311 311 311 311 311 311 311 311 311 310 310 310 310 310 309 309 309 309 308 308 308 307 307 307 307 307 307 306
345 345 344 343 342 341 341 341 340 339 338 338 338 336 333 332 332 331 329 326 322 321 322 322 322 321 320 320 319 318 317 316 316 317 317 316 315 315 314 313 312 312 312 312 312 312 312 312 312 311 311 311 311 311 311 311 311 311 311 311 311 311 311 311 311 310 310 310 310 309 309 308 308 307 306 306 305 304 303 303 303 303 303 303 303
345 344 343 343 342 342 341 340 338 338 338 336 335 332 330 330 329 325 323 323 324 321 320 321 321 320 320 319 318 317 316 316 316 316 316 315 314 313 313 312 312 312 312 312 312 312 312 312 312 312 312 312 311 311 311 312 312 312 312 312 311 311 311 310 310 310 310 309 309 308 307 306 305 304 302 301 300 299 298 299 299 299 299 300 300
343 343 343 343 342 342 341 340 339 337 336 333 332 330 329 329 326 320 317 320 323 322 319 319 320 320 319 318 317 316 316 315 315 315 315 313 313 312 313 313 312 312 312 312 312 312 312 312 312 312 312 312 312 312 312 312 312 312 311 311 311 311 310 310 310 309 309 307 307 305 304 303 301 300 299 298 297 297 297 298 298 298 299 299 299
341 341 341 341 340 340 340 338 336 334 333 331 330 329 328 325 321 315 312 315 320 321 320 319 319 319 318 317 316 315 315 314 314 313 313 312 313 313 313 313 313 313 313 312 312 312 313 313 313 313 312 312 312 312 312 312 312 311 311 311 310 310 309 309 308 308 306 305 304 303 301 299 298 298 297 297 297 297 298 298 298 299 299 299 299
340 339 338 337 337 337 336 334 332 332 332 330 328 326 324 320 315 312 311 315 319 320 319 319 319 318 317 317 316 315 314 314 314 314 314 313 313 313 313 313 313 313 313 313 313 313 313 313 313 313 312 312 312 312 312 312 311 311 310 309 309 309 308 307 306 306 305 303 302 300 299 298 298 297 297 297 297 298 298 298 298 298 299 299 298
337 335 334 334 334 334 333 332 331 330 329 327 324 322 321 318 316 315 316 318 319 319 318 318 317 317 316 315 315 314 314 314 315 315 314 313 314 314 314 314 314 314 313 313 313 314 314 314 313 312 312 311 311 311 311 310 310 309 308 308 307 307 306 306 305 304 303 301 299 298 298 298 298 297 297 297 297 297 297 297 297 297 297 297 297
334 333 332 332 332 331 330 329 327 326 324 323 321 320 319 319 318 318 318 318 318 318 317 317 316 315 315 315 315 314 314 315 315 315 314 314 314 314 313 313 314 314 314 314 315 314 313 312 311 311 311 311 310 310 309 308 308 308 307 307 306 306 305 305 304 303 301 299 298 298 298 299 298 298 297 297 297 297 297 297 297 297 296 296 296
331 330 329 328 328 327 326 324 323 323 322 320 319 318 318 319 319 319 319 318 318 317 316 315 315 315 315 315 315 315 315 315 315 315 314 314 314 313 314 314 314 315 315 315 314 312 310 310 310 310 309 309 308 308 308 307 307 307 306 306 306 305 305 304 303 301 299 298 298 299 299 298 298 298 297 296 296 296 296 296 296 296 296 296 296
Wind_Speed
34 33 32 31 30 28 26 26 26 26 26 26 26 27 29 29 29 28 24 20 19 20 20 19 17 16 15 15 16 15 15 14 12 11 11 12 12 11 11 12 13 13 13 14 15 15 16 16 16 15 16 16 16 17 17 17 18 17 16 15 15 15 17 17 19 22 22 20 20 20 19 19 19 19 20 20 19 19 19 17 17 17 19 20 21
34 33 32 31 30 28 26 26 26 26 25 26 26 26 26 27 28 28 25 23 22 21 20 20 19 18 18 17 16 16 16 16 14 13 12 13 13 13 12 13 14 15 15 15 16 16 17 16 16 15 14 15 15 15 16 17 17 17 17 16 15 15 17 17 18 21 22 20 18 18 16 16 17 16 17 17 17 16 16 15 15 16 17 19 20
33 33 32 31 30 28 26 26 26 26 26 25 25 24 24 24 24 25 25 25 24 22 20 20 21 20 19 19 18 16 16 15 15 15 15 15 15 15 15 16 17 17 16 16 16 16 16 16 16 16 16 16 17 17 17 17 18 17 16 15 15 15 15 16 16 18 21 20 18 17 16 15 16 16 16 16 16 16 15 14 15 16 17 18 19
34 33 31 30 30 29 27 26 26 26 26 25 25 23 22 22 24 25 27 24 21 22 21 18 20 22 22 21 19 17 16 16 16 16 17 16 17 18 18 18 19 18 16 16 16 15 16 16 16 17 17 18 17 17 16 16 15 14 14 13 13 13 14 14 15 16 18 19 18 16 16 16 15 14 15 15 14 15 15 16 16 16 16 17 17
33 32 31 30 30 31 29 28 27 26 26 25 24 21 20 25 26 23 22 20 17 22 23 17 17 21 24 23 20 18 18 17 18 18 19 18 18 19 19 19 18 17 16 16 16 16 16 16 16 16 17 16 15 14 13 11 11 11 11 11 12 12 12 12 13 14 15 17 17 16 15 15 14 13 14 15 15 13 14 14 15 15 16 16 16
33 31 31 31 31 32 31 29 28 26 26 25 23 22 24 29 26 18 18 19 16 20 24 21 16 18 22 24 21 20 20 20 20 21 20 19 18 17 18 18 17 16 16 15 15 15 15 14 14 14 14 12 11 10 9 9 9 9 10 11 11 11 11 11 12 13 13 15 16 16 16 15 14 13 13 15 16 15 15 15 12 12 14 15 15
35 33 31 32 32 32 31 30 28 26 26 25 25 26 28 30 25 20 20 21 18 18 20 21 19 17 19 22 21 20 21 22 21 20 18 18 17 17 18 17 16 15 15 15 14 13 12 11 10 9 9 8 8 8 8 9 9 8 9 9 10 10 10 10 11 11 12 13 14 14 14 14 14 14 13 13 15 15 17 17 14 12 12 14 14
37 37 32 32 33 32 31 29 27 26 27 26 27 28 28 27 24 22 23 21 18 17 16 19 22 20 19 19 19 20 20 20 18 16 16 16 16 16 15 15 15 14 13 12 10 9 7 6 5 5 6 6 6 6 7 7 7 7 7 8 8 9 8 9 9 10 11 12 12 13 13 13 13 13 13 13 15 15 15 17 16 16 15 14 14
37 39 35 33 33 30 29 29 27 25 26 26 27 27 27 26 25 25 24 21 17 16 15 17 20 22 22 20 20 19 18 16 15 14 14 14 14 14 13 13 12 11 9 8 6 5 4 3 3 3 4 5 5 5 5 5 6 6 7 7 8 9 8 8 9 9 10 10 11 12 12 12 13 14 15 15 16 17 16 16 17 18 18 16 14
36 40 38 34 31 28 29 30 27 26 26 25 25 26 26 26 26 26 24 20 18 17 16 17 19 21 23 23 22 20 16 15 15 14 13 13 13 13 12 11 9 7 6 5 4 3 3 2 2 1 2 3 4 3 3 4 5 6 7 8 9 10 9 8 8 8 9 9 10 11 12 13 14 16 17 16 17 17 16 17 18 18 19 18 13
36 40 38 33 30 30 31 28 23 22 23 23 22 24 25 25 25 24 21 19 19 19 18 19 20 19 21 22 22 19 17 16 15 13 12 12 11 11 10 8 8 7 6 5 4 2 2 1 1 1 2 2 2 3 5 6 7 8 9 10 9 9 7 7 7 7 8 8 8 10 12 14 15 15 17 17 16 16 15 16 18 19 19 18 14
34 37 36 32 30 28 24 17 13 13 17 19 20 23 24 24 23 23 22 22 22 20 19 20 19 19 20 21 19 18 16 15 13 12 11 11 10 9 9 9 8 7 5 4 3 2 2 1 0 0 2 3 4 6 7 7 8 9 9 9 9 7 6 6 6 6 7 7 7 9 12 14 15 16 17 17 16 15 14 14 16 16 15 14 13
32 32 30 26 22 18 13 9 8 12 16 17 19 21 23 23 24 24 24 24 22 19 18 18 18 19 20 19 17 16 16 14 12 11 10 10 9 10 10 9 7 6 5 4 3 2 2 1 1 1 3 4 5 6 6 7 7 7 8 8 7 6 5 6 6 5 5 6 7 10 13 15 16 16 16 15 14 13 12 11 11 12 11 11 12
28 25 22 18 13 10 9 10 10 13 16 17 17 19 21 22 22 23 23 22 19 18 17 17 18 19 19 18 16 15 15 13 11 10 10 10 11 11 10 8 7 6 5 4 3 2 2 2 2 2 3 4 5 5 4 4 5 6 7 6 6 6 7 7 6 4 4 6 9 12 13 13 13 13 12 12 11 11 10 10 9 10 11 11 13
24 23 22 19 13 10 10 12 12 11 13 14 16 19 20 20 20 21 21 20 18 18 17 18 18 19 18 17 16 15 14 12 11 11 11 11 12 11 9 8 8 7 6 4 4 4 3 2 3 3 4 4 5 5 4 3 3 4 5 5 5 6 6 6 5 4 6 9 12 14 13 11 9 9 10 10 10 10 10 10 11 12 13 13 14
24 24 25 22 16 12 11 12 13 13 13 15 16 18 19 19 19 19 19 19 18 18 18 18 18 18 17 15 14 13 13 12 12 13 12 12 12 11 10 9 9 7 6 6 5 4 3 3 5 6 6 6 6 6 5 5 4 3 4 5 6 5 4 4 5 7 9 11 12 13 12 10 9 9 10 11 11 10 10 10 12 13 14 14 15
24 24 24 21 15 12 11 12 14 15 15 16 17 19 20 18 16 17 19 19 19 19 19 19 18 17 16 14 13 12 12 13 13 13 13 13 13 12 11 10 8 7 6 5 3 2 3 5 6 7 7 7 7 7 6 5 5 4 4 4 5 6 5 5 7 8 9 9 9 10 10 9 9 11 12 12 12 12 11 11 11 13 14 15 16
23 21 20 17 14 12 11 12 13 15 16 16 18 20 21 18 16 16 18 20 22 22 22 21 19 16 15 14 13 13 13 13 12 13 14 14 14 13 11 10 8 6 5 3 1 1 2 4 6 7 7 6 6 7 6 5 4 3 3 3 4 4 4 4 5 7 7 8 9 9 9 9 9 11 12 12 12 12 12 12 12 13 14 16 17
19 17 16 15 14 13 11 11 13 14 16 17 20 22 22 20 18 19 21 23 24 24 23 21 19 18 16 16 16 14 13 13 13 14 15 15 14 12 11 9 8 7 5 3 2 2 3 5 6 6 6 6 6 6 6 5 4 3 2 3 3 2 3 5 5 6 7 9 9 9 9 9 9 9 10 10 9 9 9 10 10 11 12 13 15
16 14 13 14 13 13 12 12 13 13 12 14 19 24 24 22 22 23 23 24 24 23 21 18 17 18 18 17 16 13 12 14 15 16 15 14 12 11 10 9 8 8 6 5 4 3 3 4 5 5 5 6 6 6 6 5 5 4 3 2 3 4 5 7 7 8 9 10 10 10 10 9 8 8 8 7 7 7 7 7 8 8 9 10 11
16 14 13 13 14 15 14 12 12 13 11 10 15 21 24 24 24 25 25 24 23 20 18 16 16 17 17 16 15 14 13 14 16 16 15 13 11 10 10 9 8 7 6 5 5 4 3 4 4 4 5 6 6 7 7 6 5 5 5 5 7 7 8 9 9 10 11 11 11 11 10 10 9 9 9 8 8 8 7 7 7 7 7 9 10
14 15 15 14 14 15 13 10 11 13 11 9 13 18 20 21 21 22 24 23 20 17 16 17 17 16 17 16 16 15 15 14 14 14 14 12 11 10 9 8 7 6 6 5 5 4 3 3 3 4 5 6 6 6 6 6 6 6 7 9 9 9 10 11 11 12 12 13 12 12 12 12 11 11 11 10 9 9 8 8 8 7 7 8 9
10 13 15 14 13 14 13 13 14 13 10 11 16 19 19 18 18 19 19 17 16 17 18 18 18 18 18 18 17 16 15 15 14 14 13 12 10 9 8 8 7 7 6 6 6 4 2 2 4 5 6 5 5 5 7 9 9 10 11 11 12 12 12 12 11 11 10 10 10 10 10 10 10 9 9 9 9 9 9 9 9 9 8 9 9
8 11 14 15 15 15 16 16 16 15 14 15 19 21 20 19 19 19 17 14 16 19 20 20 20 19 19 19 18 17 16 15 14 13 12 10 9 8 7 7 7 6 6 5 4 2 1 3 4 5 5 4 3 6 9 11 12 12 13 13 14 14 14 14 13 12 10 8 7 6 7 8 8 9 9 9 10 9 9 9 9 9 8 8 8
10 12 14 16 17 17 16 16 16 16 16 17 20 22 22 21 21 21 18 18 20 21 21 20 21 21 21 21 20 18 17 16 15 13 11 9 7 6 5 6 6 5 3 2 1 1 2 3 4 4 4 2 1 5 8 10 10 11 12 13 14 15 15 15 14 12 10 7 7 7 9 10 9 9 8 8 8 8 7 7 7 7 6 6 6
11 14 17 19 19 17 16 17 18 16 17 19 21 22 22 23 24 23 21 21 23 23 22 22 23 22 22 21 21 20 18 16 13 11 9 7 6 6 6 7 6 3 1 1 1 2 3 5 6 5 4 4 2 3 5 6 8 10 11 12 13 14 15 14 13 11 8 7 8 10 11 11 9 6 6 6 6 6 7 7 7 6 5 5 6
9 14 18 20 19 17 18 21 22 21 21 22 23 22 22 23 24 23 23 24 23 23 24 24 24 24 23 22 21 19 17 14 11 9 7 6 6 7 7 6 4 3 2 2 3 5 7 8 7 7 7 6 4 2 3 5 8 10 11 11 12 12 13 12 10 8 7 8 9 11 11 9 7 6 6 6 7 7 8 8 9 8 8 8 8
8 13 18 20 21 22 23 24 25 24 24 24 23 23 23 23 22 22 22 22 23 24 25 25 24 25 23 22 20 18 15 12 10 8 7 7 6 6 5 4 3 3 4 6 8 10 11 10 9 9 9 6 5 3 4 6 9 10 10 10 10 10 11 12 9 6 7 9 10 10 10 9 8 7 6 6 7 8 9 9 10 11 11 12 12
11 14 17 19 23 26 27 27 25 24 24 25 24 23 22 21 20 19 19 19 21 23 24 25 24 22 20 18 17 15 14 12 10 9 9 7 5 4 3 3 3 5 8 11 12 12 12 11 11 11 9 5 3 3 4 6 7 8 9 10 11 13 15 15 13 10 9 10 12 14 13 12 10 7 6 7 8 10 11 12 12 12 12 12 12
14 16 17 20 23 26 27 27 25 24 25 26 25 24 22 19 18 18 18 19 20 21 21 21 20 17 17 16 13 10 11 12 11 10 8 6 4 4 4 4 5 8 12 14 13 12 11 12 12 10 7 4 3 3 3 4 6 7 8 9 12 16 18 17 16 14 12 13 16 17 16 14 12 9 8 8 10 11 13 14 14 14 13 13 13
16 16 18 22 24 25 25 26 25 24 25 25 25 24 24 22 19 19 20 21 21 21 19 18 16 14 13 13 13 12 11 11 10 8 6 4 4 5 6 7 9 12 13 13 13 12 11 11 10 8 5 3 2 2 4 6 8 8 8 8 12 15 16 16 15 15 13 13 14 16 16 16 15 14 13 13 13 15 16 17 17 17 16 15 16
16 16 19 25 27 26 25 24 23 23 25 25 24 24 24 24 23 22 22 21 21 20 19 17 16 14 10 7 9 12 12 11 8 6 5 4 5 7 9 10 12 13 13 11 11 11 10 8 7 5 3 1 2 4 5 6 7 7 6 7 10 13 13 13 12 12 11 12 13 14 16 17 18 18 18 18 18 19 19 20 21 21 20 20 20
17 16 20 26 27 26 25 24 23 24 25 25 24 24 24 25 25 25 24 21 19 19 19 17 16 14 12 9 9 10 10 9 7 6 5 6 8 10 12 13 13 12 11 10 9 8 7 6 5 3 2 3 4 4 3 3 5 6 6 7 10 11 10 9 9 8 9 11 13 14 16 17 19 20 21 21 20 21 21 22 22 23 23 23 24
17 17 19 24 25 24 24 24 24 25 26 25 26 26 25 25 24 25 25 23 20 19 20 18 15 13 13 12 11 10 9 8 8 7 8 10 12 13 14 15 13 10 8 8 8 7 6 4 3 4 4 4 3 1 1 3 5 5 5 5 6 6 6 6 7 7 10 13 14 15 17 19 21 22 22 20 20 21 22 22 21 21 22 22 24
18 19 21 24 23 22 23 24 26 27 27 27 28 27 26 25 24 24 24 24 23 22 21 19 16 14 12 11 11 10 10 10 11 11 11 12 13 13 12 13 12 10 8 7 7 7 6 6 5 4 3 3 3 2 2 2 3 3 2 2 3 3 4 6 7 9 12 15 16 17 19 21 22 21 20 19 19 21 21 21 20 20 20 21 24
19 21 24 24 23 23 24 25 26 28 28 29 29 28 27 26 25 25 24 23 23 23 23 21 19 16 13 12 12 12 13 13 13 13 12 12 11 10 10 11 12 11 10 9 9 9 8 6 5 5 4 5 6 4 3 2 2 4 5 6 7 7 7 8 10 12 14 16 17 18 19 20 20 19 18 19 19 20 20 20 20 20 20 22 25
22 23 25 25 24 25 26 27 28 29 29 29 29 28 28 26 25 25 25 24 23 23 23 22 20 18 16 16 16 16 16 16 14 13 13 12 10 10 10 12 12 13 12 11 10 9 8 8 7 7 7 6 5 4 3 3 5 7 9 10 11 11 11 11 12 14 14 15 16 17 18 19 19 19 20 21 21 21 21 22 22 23 24 25 26
24 24 24 24 25 26 28 29 30 30 30 29 29 28 28 27 26 25 25 23 22 21 21 19 18 18 20 21 20 19 18 17 16 15 14 13 12 12 12 13 13 13 12 10 8 7 7 8 7 7 5 3 2 3 4 6 9 10 11 11 11 11 11 12 12 13 14 15 16 17 18 19 20 21 22 23 23 23 24 24 24 25 26 26 26
26 24 24 25 25 26 28 29 31 31 30 30 29 29 29 28 27 26 25 23 22 20 19 18 18 19 21 22 21 19 18 18 17 16 15 14 13 13 12 13 12 11 10 9 7 5 4 5 5 5 4 3 4 6 7 9 10 10 9 9 10 11 12 13 14 15 16 17 18 19 20 21 21 22 23 24 24 24 25 25 25 26 27 26 26
29 28 27 28 28 29 30 32 33 32 31 30 31 31 30 29 28 27 25 23 22 20 18 18 19 20 22 22 20 18 17 17 16 15 14 13 13 13 12 11 10 9 9 8 5 3 3 4 6 6 7 7 8 8 8 8 8 8 9 10 12 13 14 15 16 17 18 19 20 21 22 22 23 23 24 24 24 24 25 25 26 26 26 26 27
31 31 30 30 31 33 34 35 35 33 31 31 32 32 31 30 29 28 26 24 22 20 20 21 22 22 21 20 18 16 15 15 15 14 13 13 13 13 10 8 7 7 8 7 5 4 3 5 6 8 9 10 10 9 8 8 9 10 12 13 14 15 16 17 18 19 20 21 21 22 23 24 24 25 26 26 26 27 27 27 27 27 28 28 29
31 32 32 31 33 35 37 37 36 33 31 32 33 32 32 31 29 27 25 23 22 22 23 24 23 22 21 19 17 14 13 14 14 14 14 14 13 11 8 7 7 7 7 6 5 5 4 6 8 10 10 9 8 8 9 10 12 13 14 16 17 18 19 20 21 21 22 22 23 24 25 25 26 27 27 28 29 29 29 30 30 30 30 30 30
30 32 33 33 34 36 37 37 36 34 34 34 34 32 30 30 28 26 24 23 23 24 25 25 24 22 21 19 17 15 13 13 14 14 14 14 12 9 7 7 7 7 7 5 5 5 6 7 8 8 8 8 8 9 10 12 14 15 16 18 19 20 21 22 23 23 24 25 26 26 27 28 29 30 31 31 32 32 32 32 32 32 31 30 28
31 33 35 36 37 37 36 36 35 35 34 34 33 32 30 28 27 25 24 24 24 25 25 25 24 23 22 21 18 16 13 12 13 13 12 11 8 7 6 6 6 5 4 3 2 3 5 6 6 6 7 9 10 12 13 15 16 17 18 19 20 21 22 23 24 26 27 28 29 30 31 33 34 34 35 34 34 33 32 31 31 30 29 28 27
33 37 39 40 40 38 37 37 35 34 35 35 35 33 30 27 26 24 23 24 26 26 25 24 23 23 23 21 18 14 12 12 12 11 9 7 7 9 9 7 4 3 1 0 1 2 4 4 5 7 9 11 13 15 16 17 18 18 19 19 21 22 23 24 26 27 29 31 33 34 35 36 37 36 36 34 32 30 29 27 27 26 25 24 23
29 36 39 40 41 41 39 37 36 35 37 38 35 32 28 26 24 23 22 24 26 26 25 23 22 21 21 19 16 13 12 12 11 10 8 9 11 12 11 9 8 6 4 2 2 0 3 5 7 9 12 14 15 16 17 17 18 19 20 21 23 24 25 26 28 30 32 34 35 36 37 37 36 34 31 29 27 25 23 22 21 20 19 18 17
24 32 36 39 42 42 39 38 37 38 38 36 33 30 28 26 23 22 23 26 28 27 24 22 21 19 17 16 15 13 12 12 11 10 10 11 12 10 8 7 6 4 2 0 2 4 6 8 10 12 14 15 16 16 16 17 18 20 22 24 25 26 28 29 31 33 34 35 36 37 36 34 32 29 26 24 22 20 18 16 15 14 14 14 14
27 31 34 37 40 40 40 40 40 39 37 34 32 29 27 26 25 26 27 29 29 27 24 21 19 18 16 15 14 13 12 12 11 10 10 10 8 7 5 4 2 1 4 5 6 7 9 10 12 14 15 15 15 15 17 19 22 24 26 27 28 30 31 32 33 34 35 35 36 35 33 30 28 25 23 21 19 16 15 15 14 13 13 14 15
30 33 36 40 42 43 43 42 40 36 34 32 31 29 27 27 28 28 29 28 27 24 21 20 19 18 16 15 13 11 10 10 10 9 8 7 6 4 3 2 3 5 6 7 8 10 11 13 14 14 14 15 16 18 21 24 25 27 28 29 30 31 32 33 34 35 35 35 34 31 28 26 25 23 21 19 16 14 14 15 15 14 14 15 15
33 35 38 41 42 42 41 39 37 35 33 32 30 27 26 25 25 26 26 26 24 21 19 18 18 17 16 15 13 10 9 9 10 10 9 6 4 3 2 3 5 7 8 9 11 13 14 15 15 15 16 18 21 23 24 25 27 28 29 30 30 31 33 34 35 36 35 33 30 27 25 24 23 22 20 17 14 12 12 13 14 14 14 14 14
36 37 36 37 38 37 36 35 34 33 31 28 25 24 23 23 24 24 24 22 20 18 17 17 17 17 16 14 12 11 9 9 9 9 6 4 4 5 5 7 8 9 11 13 14 15 15 16 17 18 20 21 22 24 25 26 27 28 29 30 31 33 34 35 35 35 32 29 26 23 22 21 21 20 18 15 12 11 12 12 12 12 13 13 12
Wind_Direction
225 227 233 237 236 235 235 234 232 232 233 232 230 228 225 225 227 231 230 224 229 239 239 234 234 238 241 238 235 239 244 244 241 241 242 242 244 245 244 245 250 255 260 264 268 268 267 267 270 272 273 273 275 279 282 284 284 283 283 281 280 282 284 284 284 286 289 293 297 302 304 301 298 299 298 296 294 293 293 293 291 288 287 287 285
227 228 234 237 236 234 233 232 230 230 231 232 232 230 229 229 228 228 228 226 231 239 238 234 236 238 239 240 241 242 246 248 245 242 243 243 246 250 250 248 251 256 261 269 276 277 277 279 280 281 279 276 276 279 280 280 280 282 283 281 278 279 283 284 285 287 292 297 302 306 309 307 306 308 306 303 302 300 299 297 294 291 290 290 289
229 230 234 236 235 233 232 232 231 231 232 233 233 232 231 230 228 226 226 228 232 232 226 228 237 237 237 242 245 244 243 245 243 241 242 245 246 247 249 252 256 261 265 273 279 278 277 278 279 280 279 277 278 279 278 277 277 279 282 281 281 281 282 285 286 289 294 300 306 310 313 312 311 311 309 307 307 308 307 304 299 297 296 295 294
230 230 231 233 233 231 231 232 232 231 233 233 232 231 230 230 229 228 227 229 234 230 221 225 236 236 235 241 242 240 238 237 236 235 238 240 240 243 249 255 259 263 267 274 279 278 276 275 275 276 275 275 277 277 276 276 276 279 283 283 282 281 281 284 288 292 296 302 308 313 316 315 314 314 311 306 306 307 308 308 306 304 302 300 298
228 229 230 231 231 230 229 231 233 232 233 233 232 230 230 231 230 229 233 236 235 231 228 230 239 236 234 237 239 237 238 240 239 237 237 238 239 244 251 255 261 267 271 274 276 275 274 273 271 272 272 272 274 275 275 276 277 280 282 283 282 283 286 289 291 296 301 306 312 315 318 318 318 319 315 309 309 308 306 306 307 307 305 304 305
231 230 230 230 230 230 230 231 233 234 234 235 235 232 232 234 233 231 239 244 239 230 227 226 233 236 232 233 236 238 242 244 241 238 239 241 244 249 255 258 264 269 270 270 271 272 271 270 270 271 272 273 275 277 276 273 275 278 279 282 287 290 293 295 296 301 306 310 315 317 319 322 323 324 320 316 316 317 314 311 310 311 312 314 317
237 231 229 231 231 231 231 232 233 234 235 236 236 236 236 240 242 238 238 243 242 233 225 219 220 226 227 227 231 237 240 239 236 237 241 246 249 253 255 258 262 264 266 269 269 269 270 271 271 271 270 271 273 274 274 274 275 280 284 290 296 298 300 302 306 310 312 314 317 317 320 325 326 328 328 326 324 324 321 320 323 327 325 327 330
237 232 230 230 230 231 231 233 234 235 236 235 235 238 239 242 246 242 239 243 242 236 231 221 215 218 221 223 227 231 232 233 237 241 244 247 250 251 251 255 259 262 265 267 265 264 263 258 255 256 258 265 271 272 274 279 283 289 296 303 307 308 310 311 312 315 316 318 320 319 321 326 329 329 329 328 326 325 325 324 327 331 329 331 334
238 233 230 227 228 230 231 232 234 233 234 234 235 239 241 242 243 242 240 242 241 235 232 222 214 217 222 226 229 230 230 239 248 249 246 248 251 252 253 255 256 257 256 252 246 241 233 229 235 248 259 270 281 284 284 289 293 295 301 309 311 311 311 312 313 318 322 323 322 320 321 326 329 326 325 325 325 324 324 322 323 326 324 327 333
244 236 230 226 226 228 229 231 231 230 230 232 236 240 242 243 242 241 239 237 236 232 224 217 215 219 227 231 234 237 242 249 253 250 249 252 254 253 252 248 238 230 223 212 204 204 211 225 233 250 275 282 287 293 303 306 305 305 308 311 311 306 305 309 313 317 321 324 324 322 323 326 330 330 327 326 323 320 317 316 318 323 324 326 335
251 243 234 229 228 227 226 224 224 228 230 233 239 241 242 243 241 238 233 230 233 231 222 218 219 222 228 232 236 243 248 247 246 247 248 249 249 242 229 214 199 193 190 188 192 197 189 202 210 228 263 275 290 304 313 312 309 308 308 307 307 302 300 305 312 315 318 322 324 325 325 326 329 331 329 326 323 319 315 314 318 323 326 327 334
252 249 243 238 233 226 222 216 216 231 237 237 238 239 238 239 237 235 233 234 237 233 222 217 219 223 229 233 238 244 245 242 240 240 238 236 232 213 191 180 179 181 182 184 186 163 125 125 120 287 272 285 302 309 312 310 307 306 301 295 295 293 292 298 306 310 310 310 316 324 326 325 327 330 329 327 327 322 317 317 318 321 324 324 327
246 251 250 246 234 221 223 231 236 250 251 243 239 237 237 238 237 236 238 239 236 226 217 217 221 227 232 235 238 240 239 236 233 226 222 217 201 180 169 172 173 165 163 165 156 122 92 61 14 342 319 316 317 318 318 314 308 302 291 285 282 279 279 287 296 299 293 293 310 322 326 326 327 332 333 331 330 328 326 328 323 317 316 317 323
241 244 243 242 234 228 243 249 246 250 248 241 239 240 240 240 238 236 236 234 228 220 219 223 225 228 231 231 232 233 230 225 217 209 204 191 175 166 165 164 153 143 146 149 141 130 117 80 42 18 359 349 343 337 331 321 307 292 284 281 272 265 270 277 286 290 277 286 312 322 325 325 326 329 330 328 329 332 335 333 323 313 314 318 322
238 230 226 232 240 245 245 236 232 238 238 236 239 239 238 237 237 236 234 229 226 223 224 225 223 222 224 224 225 223 216 206 197 190 183 171 164 165 162 151 145 145 140 120 107 118 122 82 42 25 17 10 1 354 351 345 321 296 287 279 267 268 276 270 263 273 283 297 314 320 321 320 317 316 317 318 323 331 331 325 316 312 313 314 313
237 229 226 229 235 239 233 224 224 231 233 233 233 231 230 231 232 234 234 229 225 222 219 218 218 218 218 217 214 207 197 190 184 177 169 163 163 165 159 154 154 145 122 104 102 106 87 37 21 19 13 6 2 2 6 6 352 324 300 282 273 280 289 273 269 287 298 304 310 315 318 319 314 311 312 313 316 318 318 314 310 309 310 308 306
234 233 230 228 231 237 233 222 226 236 237 232 230 226 221 219 221 226 229 227 222 217 213 212 212 213 210 204 196 187 182 182 178 169 163 164 165 162 161 162 157 140 124 118 108 74 34 9 4 4 1 359 2 6 11 14 6 344 314 291 285 288 293 293 294 298 301 301 301 305 312 316 314 311 311 312 312 309 308 309 307 308 312 315 315
234 235 233 231 236 244 242 234 238 250 251 240 232 225 218 215 215 216 218 219 217 212 210 208 203 198 193 185 178 178 179 178 172 166 166 168 166 164 167 166 159 156 156 154 140 28 353 345 348 352 354 358 4 9 15 20 15 354 323 307 298 293 299 308 305 300 299 299 298 299 304 310 311 310 310 312 313 311 314 318 318 317 318 319 318
235 236 235 234 236 239 240 241 247 256 257 247 234 224 220 224 222 214 213 215 212 206 203 200 191 180 176 174 172 175 178 170 164 165 168 169 169 170 172 172 171 177 184 191 207 247 307 327 338 346 351 356 5 15 22 23 26 29 5 328 312 325 350 345 331 319 313 310 309 310 313 316 315 313 315 320 322 323 329 335 334 329 325 322 322
234 239 242 240 237 236 238 243 247 248 250 254 245 233 230 232 226 217 213 210 205 198 192 188 181 172 170 171 169 168 170 164 160 164 167 168 172 177 181 186 192 194 195 203 221 246 287 317 335 349 357 8 19 25 28 30 33 36 28 6 12 17 2 342 330 324 318 314 312 311 313 316 314 312 317 324 326 329 336 341 341 339 334 331 335
233 236 239 237 235 238 241 244 245 238 236 258 259 245 241 242 232 221 213 203 194 186 179 176 178 173 166 165 163 160 164 165 161 162 167 169 173 182 191 199 208 211 208 211 225 249 280 316 346 8 21 27 29 26 23 23 19 16 18 20 16 3 343 330 322 314 305 300 298 295 295 297 296 297 303 310 314 317 321 325 328 334 338 340 343
240 236 234 232 231 235 236 225 221 224 231 257 256 239 236 241 232 217 208 197 184 177 173 172 175 170 159 157 159 158 161 164 163 163 166 168 174 185 197 207 216 222 226 233 245 261 292 341 21 41 41 33 25 18 6 354 354 2 9 8 356 339 330 328 323 313 300 291 288 289 290 291 292 293 296 298 299 300 304 308 310 315 330 341 340
239 235 228 225 223 226 223 208 203 208 216 236 238 226 220 227 225 216 209 194 175 172 173 170 170 167 159 156 159 159 160 163 165 165 166 169 176 185 193 202 211 218 230 245 256 270 306 21 42 44 44 37 20 359 339 335 346 355 354 350 341 332 331 334 333 330 319 301 290 291 296 302 307 310 311 308 305 303 302 305 306 308 315 323 320
213 217 214 212 210 212 211 201 197 201 203 211 219 216 211 216 221 217 207 188 173 172 171 168 170 169 163 159 159 160 162 163 164 167 171 176 181 185 189 196 204 212 229 247 256 272 11 47 48 46 55 55 16 341 333 338 346 349 346 342 337 333 335 340 343 344 339 325 313 315 323 332 338 339 338 330 321 313 306 304 306 307 309 309 305
195 197 195 195 196 197 195 189 187 192 197 201 204 204 202 204 208 207 196 183 177 171 168 170 174 172 166 162 161 161 163 167 170 173 178 180 180 180 183 188 188 191 212 240 221 110 51 56 68 79 93 104 317 323 334 339 341 341 339 334 330 330 336 343 344 342 342 344 347 349 353 359 359 353 344 332 319 312 310 308 304 298 291 283 276
188 183 182 184 186 183 178 177 177 181 191 197 198 198 198 199 200 195 186 181 178 171 169 173 175 171 166 164 163 164 168 173 176 177 178 176 168 159 160 166 169 167 175 202 169 106 91 99 112 130 155 182 232 309 332 332 330 329 327 325 327 333 340 344 342 341 346 355 357 359 2 4 2 353 338 330 331 335 340 338 327 313 302 286 268
180 175 178 181 180 173 170 172 172 174 182 189 190 191 194 197 195 187 179 178 176 171 171 174 173 170 168 167 167 169 171 173 175 175 175 176 165 157 158 165 170 173 178 177 156 135 133 137 149 168 181 184 191 239 302 310 316 320 323 330 339 347 353 353 346 338 350 2 2 3 7 6 0 356 351 347 349 352 352 346 339 335 331 322 304
183 174 177 179 174 169 170 172 173 174 177 180 183 187 189 188 187 183 180 179 177 174 174 174 173 172 170 168 169 171 171 174 177 177 180 181 171 165 173 185 185 177 165 161 156 151 152 160 173 178 178 183 196 229 287 308 316 324 333 346 2 13 19 19 13 359 1 6 4 4 7 10 14 19 14 4 359 358 356 352 348 345 338 331 328
200 183 181 181 176 172 173 174 175 176 176 175 178 182 181 178 177 178 180 181 181 180 177 174 174 173 170 168 170 172 173 175 176 177 179 179 175 179 195 202 189 168 160 162 164 163 164 173 182 181 180 195 230 284 316 321 328 338 350 6 22 28 28 31 32 24 16 16 17 14 10 9 15 23 21 14 10 6 3 1 358 353 347 344 348
206 194 192 191 183 178 177 177 176 178 178 176 175 174 173 172 174 177 177 180 183 184 180 176 173 170 166 165 166 168 170 170 170 172 176 177 182 197 206 202 179 165 162 166 171 174 176 179 182 184 190 217 263 315 342 352 2 7 13 26 33 29 26 29 31 29 25 25 25 21 13 6 6 8 5 1 1 358 356 356 355 352 349 349 352
209 201 199 194 187 183 183 182 180 179 178 175 172 170 168 169 173 177 178 179 181 181 180 177 171 165 164 164 162 162 164 164 165 172 182 186 195 202 198 184 170 166 168 171 173 175 180 184 185 189 210 244 277 356 33 39 34 27 26 32 33 30 26 25 25 24 24 23 20 17 15 11 8 6 3 358 355 353 353 354 355 355 354 353 351
219 207 196 191 188 185 186 186 183 178 175 171 169 171 171 169 169 172 176 179 180 179 178 173 164 158 155 156 161 162 161 161 170 188 202 194 181 180 176 170 167 169 174 178 177 177 184 194 198 201 218 238 67 61 56 52 45 39 35 28 27 29 27 23 21 20 19 17 15 15 16 14 11 7 5 3 2 3 5 8 10 10 10 8 5
228 215 197 192 190 187 186 186 183 178 174 171 171 176 175 171 167 168 172 175 177 175 171 163 155 152 149 147 156 162 164 172 186 199 192 163 154 157 157 156 160 169 179 187 189 183 182 192 194 180 139 95 86 82 78 66 49 44 39 23 22 28 29 23 20 15 7 7 9 9 8 7 6 4 5 7 10 13 14 16 17 17 16 14 11
233 223 202 193 193 191 187 185 181 178 176 175 176 177 175 171 168 168 169 168 164 159 156 152 154 159 158 157 163 172 180 186 186 178 162 147 145 153 157 154 157 169 184 196 196 182 166 157 136 114 102 91 88 112 131 87 64 59 51 24 19 33 35 21 11 358 353 355 355 354 355 354 355 358 3 7 10 10 9 9 9 9 9 8 5
228 219 200 191 193 194 190 187 183 179 178 179 179 176 172 170 169 170 171 168 161 156 154 155 158 163 165 167 174 180 180 176 166 158 153 149 150 158 164 164 166 172 173 168 156 135 114 95 93 109 109 81 68 80 125 108 79 71 59 5 354 9 9 357 350 346 344 343 342 342 343 344 346 352 358 0 360 358 358 359 358 357 356 354 353
218 208 196 191 193 193 190 188 186 182 181 181 178 174 172 172 172 172 172 170 166 163 161 159 159 161 166 172 173 167 162 159 152 146 145 147 152 161 168 166 159 148 133 120 110 102 94 86 95 105 88 72 72 79 92 84 37 13 356 341 335 331 328 330 335 337 337 336 336 337 338 339 343 348 351 351 350 347 347 348 347 346 345 342 342
212 205 196 192 191 190 188 187 186 184 183 181 178 175 174 174 174 174 172 171 170 168 165 163 163 162 160 159 158 155 152 148 142 138 135 135 140 146 146 138 125 113 106 104 103 99 96 96 100 97 88 86 88 78 55 27 5 353 343 338 334 329 324 324 328 331 335 337 339 340 341 342 343 344 343 341 340 338 338 338 338 339 338 336 334
209 205 199 194 192 189 186 185 184 182 180 179 178 178 177 175 175 174 173 172 171 169 166 164 164 160 155 152 151 152 149 145 142 140 136 133 135 134 123 112 104 101 101 104 106 105 103 106 109 106 100 96 60 23 9 355 350 347 344 342 340 338 336 335 335 338 342 344 344 343 341 340 338 336 335 333 332 330 329 330 330 331 331 330 329
207 206 202 196 193 190 187 185 182 180 179 178 179 180 179 176 174 174 173 170 169 167 161 158 158 158 155 152 151 152 153 150 147 144 139 137 140 136 123 113 108 105 99 97 101 110 113 106 91 71 52 24 358 351 345 341 344 348 349 350 350 349 349 348 345 344 342 340 338 337 334 331 330 328 327 326 325 324 323 323 324 324 324 324 322
204 206 203 196 192 190 187 183 181 181 182 182 181 181 180 177 174 173 172 170 167 164 159 156 156 156 154 150 149 151 153 152 150 148 146 145 146 143 135 127 120 110 97 89 91 101 98 79 62 42 24 13 4 355 347 346 352 357 357 356 354 352 349 345 341 339 336 333 331 329 326 325 323 321 320 320 319 319 318 318 318 318 317 316 316
202 204 202 194 190 188 185 182 182 184 185 185 183 181 179 176 173 170 168 167 164 159 154 153 152 151 149 147 144 142 143 145 149 154 157 157 154 149 145 140 128 112 94 81 78 85 79 59 37 18 10 10 6 356 348 350 355 356 353 350 346 342 339 336 334 332 330 327 325 323 321 320 319 317 316 316 315 314 313 312 311 311 310 310 311
202 203 199 193 190 188 186 185 186 186 185 183 182 180 176 172 168 165 163 161 157 153 150 149 148 148 148 147 144 140 139 141 145 149 154 159 160 157 156 154 138 115 99 89 86 82 62 33 19 13 11 6 357 345 341 344 347 345 342 339 336 333 332 330 329 327 324 322 321 320 319 319 317 315 314 313 311 310 309 307 307 307 307 308 310
200 202 200 195 191 190 190 189 187 184 181 180 179 178 174 167 161 159 157 155 152 151 152 152 152 152 151 148 146 147 146 146 148 147 146 149 150 147 149 155 146 129 121 116 94 60 33 22 21 17 6 352 341 336 335 335 334 332 330 328 327 327 327 326 325 324 323 322 322 321 320 319 317 316 314 313 311 309 307 306 304 304 304 305 305
199 201 198 192 189 190 193 192 186 181 179 177 175 173 170 163 156 153 153 151 151 152 154 155 155 154 153 151 151 152 152 152 153 151 148 146 139 132 142 159 159 149 148 142 86 42 29 25 17 357 339 333 332 330 327 326 324 323 322 321 322 323 324 324 324 324 324 324 324 323 322 321 320 319 317 316 314 312 310 308 306 304 303 302 302
198 195 192 189 188 189 191 190 184 177 173 171 169 168 164 156 149 148 150 152 152 153 153 152 152 152 153 154 156 157 157 154 151 150 151 147 129 120 124 127 114 92 96 156 72 39 26 10 342 322 323 327 327 324 321 319 318 318 318 320 322 323 323 324 324 325 325 325 325 325 323 322 321 320 319 318 317 316 314 313 311 310 309 310 310
199 192 190 189 189 187 186 183 179 172 167 165 163 159 154 148 145 148 152 157 158 157 155 154 153 152 153 156 158 156 155 153 149 146 143 136 123 115 109 101 84 65 53 88 135 152 321 313 304 306 314 318 317 316 316 315 315 318 321 322 323 323 323 323 324 325 326 326 325 323 322 322 321 321 322 322 321 320 319 318 319 322 325 329 331
198 192 189 186 182 179 176 172 166 163 161 158 154 150 146 145 146 150 153 157 160 161 160 158 156 154 153 152 147 140 137 139 141 136 126 121 118 111 99 90 84 70 46 187 214 256 282 291 297 302 306 307 307 309 312 315 319 322 323 323 322 322 323 324 326 327 327 326 324 324 324 324 325 326 327 326 325 325 326 330 336 342 342 341 341
185 180 176 171 166 161 158 157 155 155 154 150 146 145 145 142 141 145 149 153 156 159 160 158 157 155 152 147 140 134 129 130 132 127 118 115 121 124 117 106 105 270 273 271 272 279 286 293 298 301 302 304 307 312 317 321 323 323 323 323 323 324 325 327 328 327 326 326 326 326 327 328 329 330 330 330 331 335 342 346 348 347 338 328 328
171 160 154 152 151 149 149 150 150 149 146 143 141 140 137 134 137 144 150 153 155 156 156 157 156 153 148 144 142 139 134 131 133 138 138 136 140 149 155 182 248 268 273 278 285 292 296 299 302 305 308 313 317 320 321 322 322 322 323 324 325 327 328 328 327 327 327 328 329 330 330 331 331 331 330 331 335 345 351 347 341 338 335 333 336
151 144 140 140 141 142 142 142 141 139 140 140 138 134 132 135 141 146 149 151 152 153 153 155 156 155 152 149 147 147 143 136 138 150 160 162 167 184 207 241 262 273 282 289 296 303 306 308 310 314 318 320 321 321 321 321 323 324 325 327 328 329 329 328 328 328 329 330 332 333 333 332 330 329 328 330 336 346 349 342 336 337 341 343 345
128 129 129 130 132 134 133 133 134 137 139 137 132 131 136 143 147 147 146 149 151 152 150 150 151 154 155 154 154 157 155 145 142 154 173 196 219 233 252 270 278 284 294 301 305 310 314 316 318 320 320 320 320 321 322 325 326 327 327 329 329 329 329 328 329 329 330 332 334 335 334 332 331 331 332 334 338 343 342 336 333 337 341 342 342